| time (UTC) | temp F | wind direction | speed MPH | gust MPH | rain 1hr in | rain 24hr in | rain mn in | humidity % | barometer mb |
| 20260902012040 | 78 | 0 | 0.0 | 2.0 | 0.00 | 0.00 | 0.00 | 83 | 1019.4 |
| 20260902011548 | 78 | 0 | 1.0 | 3.0 | 0.00 | 0.00 | 0.00 | 83 | 1019.5 |
| 20260902011041 | 78 | 21 | 1.0 | 3.0 | 0.00 | 0.00 | 0.00 | 83 | 1019.4 |
| 20260902010540 | 79 | 21 | 0.0 | 2.0 | 0.00 | 0.00 | 0.00 | 83 | 1019.4 |
| 20260902010055 | 79 | 0 | 0.0 | 2.0 | 0.00 | 0.00 | 0.00 | 82 | 1019.3 |
| 20260902005539 | 79 | 0 | 0.0 | 2.0 | 0.00 | 0.00 | 0.00 | 82 | 1019.3 |
| 20260902005041 | 79 | 0 | 0.0 | 2.0 | 0.00 | 0.00 | 0.00 | 81 | 1019.2 |
| 20260902004558 | 79 | 0 | 1.0 | 2.0 | 0.00 | 0.00 | 0.00 | 81 | 1019.2 |
| 20260902004040 | 79 | 21 | 0.0 | 2.0 | 0.00 | 0.00 | 0.00 | 81 | 1019.1 |
| 20260902003540 | 79 | 21 | 1.0 | 2.0 | 0.00 | 0.00 | 0.00 | 80 | 1019.2 |
| 20260902003055 | 80 | 21 | 1.0 | 2.0 | 0.00 | 0.00 | 0.00 | 80 | 1019.2 |
| 20260902002543 | 80 | 21 | 0.0 | 2.0 | 0.00 | 0.00 | 0.00 | 80 | 1019.1 |
| 20260902002042 | 80 | 0 | 0.0 | 1.0 | 0.00 | 0.00 | 0.00 | 80 | 1019.2 |
| 20260902001559 | 80 | 0 | 0.0 | 2.0 | 0.00 | 0.00 | 0.00 | 80 | 1019.1 |
| 20260902001038 | 81 | 0 | 0.0 | 2.0 | 0.00 | 0.00 | 0.00 | 80 | 1019.2 |
| 20260902000539 | 81 | 21 | 0.0 | 3.0 | 0.00 | 0.00 | 0.00 | 80 | 1019.2 |
| 20260902000058 | 81 | 21 | 0.0 | 3.0 | 0.00 | 0.00 | 0.00 | 80 | 1019.1 |
| 20260901235538 | 81 | 21 | 2.0 | 3.0 | 0.00 | 0.00 | 0.00 | 79 | 1019.2 |
| 20260901235037 | 81 | 21 | 2.0 | 3.0 | 0.00 | 0.00 | 0.00 | 79 | 1019.2 |
| 20260901234604 | 81 | 360 | 2.0 | 3.0 | 0.00 | 0.00 | 0.00 | 78 | 1019.2 |
| 20260901234038 | 82 | 360 | 1.0 | 3.0 | 0.00 | 0.00 | 0.00 | 78 | 1019.2 |
| 20260901233538 | 82 | 360 | 2.0 | 3.0 | 0.00 | 0.00 | 0.00 | 77 | 1019.1 |
| 20260901233105 | 83 | 360 | 2.0 | 3.0 | 0.00 | 0.00 | 0.00 | 76 | 1019.2 |
| 20260901232540 | 83 | 360 | 2.0 | 3.0 | 0.00 | 0.00 | 0.00 | 76 | 1019.3 |
| 20260901232038 | 84 | 360 | 2.0 | 3.0 | 0.00 | 0.00 | 0.00 | 74 | 1019.2 |
| 20260901231600 | 84 | 360 | 1.0 | 3.0 | 0.00 | 0.00 | 0.00 | 73 | 1019.2 |
| 20260901231038 | 85 | 0 | 1.0 | 3.0 | 0.00 | 0.00 | 0.00 | 73 | 1019.4 |
| 20260901230538 | 85 | 360 | 1.0 | 3.0 | 0.00 | 0.00 | 0.00 | 70 | 1019.4 |
| 20260901230107 | 85 | 360 | 1.0 | 3.0 | 0.00 | 0.00 | 0.00 | 71 | 1019.3 |
| 20260901225538 | 86 | 360 | 1.0 | 4.0 | 0.00 | 0.00 | 0.00 | 68 | 1019.3 |
| 20260901225038 | 87 | 21 | 1.0 | 5.0 | 0.00 | 0.00 | 0.00 | 66 | 1019.1 |
| 20260901224556 | 86 | 348 | 1.0 | 5.0 | 0.00 | 0.00 | 0.00 | 65 | 1019.2 |
| 20260901224038 | 87 | 5 | 3.0 | 5.0 | 0.00 | 0.00 | 0.00 | 62 | 1019.2 |
| 20260901223538 | 87 | 348 | 1.0 | 4.0 | 0.00 | 0.00 | 0.00 | 64 | 1019.1 |
| 20260901223101 | 88 | 348 | 1.0 | 4.0 | 0.00 | 0.00 | 0.00 | 66 | 1019.1 |
| 20260901222538 | 88 | 324 | 2.0 | 4.0 | 0.00 | 0.00 | 0.00 | 60 | 1018.9 |
| 20260901222041 | 87 | 315 | 1.0 | 4.0 | 0.00 | 0.00 | 0.00 | 61 | 1019.1 |
| 20260901221549 | 87 | 313 | 3.0 | 6.0 | 0.00 | 0.00 | 0.00 | 61 | 1019.0 |
| 20260901221038 | 87 | 9 | 3.0 | 6.0 | 0.00 | 0.00 | 0.00 | 62 | 1019.1 |
| 20260901220537 | 87 | 343 | 2.0 | 8.0 | 0.00 | 0.00 | 0.00 | 61 | 1018.9 |
| 20260901220058 | 87 | 33 | 4.0 | 8.0 | 0.00 | 0.00 | 0.00 | 60 | 1019.0 |
| 20260901215538 | 88 | 10 | 3.0 | 8.0 | 0.00 | 0.00 | 0.00 | 60 | 1018.9 |
| 20260901215039 | 88 | 355 | 1.0 | 6.0 | 0.00 | 0.00 | 0.00 | 64 | 1018.9 |
| 20260901214605 | 87 | 303 | 3.0 | 6.0 | 0.00 | 0.00 | 0.00 | 60 | 1019.0 |
| 20260901214038 | 87 | 0 | 1.0 | 6.0 | 0.00 | 0.00 | 0.00 | 61 | 1018.9 |
| 20260901213540 | 87 | 355 | 4.0 | 6.0 | 0.00 | 0.00 | 0.00 | 60 | 1018.9 |
| 20260901213129 | 87 | 5 | 1.0 | 6.0 | 0.00 | 0.00 | 0.00 | 59 | 1018.8 |
| 20260901212538 | 87 | 308 | 4.0 | 9.0 | 0.00 | 0.00 | 0.00 | 60 | 1018.9 |
| 20260901212039 | 87 | 318 | 3.0 | 9.0 | 0.00 | 0.00 | 0.00 | 60 | 1018.9 |
| 20260901211559 | 87 | 360 | 3.0 | 5.0 | 0.00 | 0.00 | 0.00 | 61 | 1019.1 |
| 20260901211040 | 87 | 349 | 3.0 | 8.0 | 0.00 | 0.00 | 0.00 | 61 | 1019.1 |
| 20260901210540 | 88 | 28 | 1.0 | 8.0 | 0.00 | 0.00 | 0.00 | 60 | 1019.1 |
| 20260901210057 | 88 | 18 | 2.0 | 8.0 | 0.00 | 0.00 | 0.00 | 59 | 1019.2 |
| 20260901205544 | 87 | 288 | 2.0 | 9.0 | 0.00 | 0.00 | 0.00 | 59 | 1019.2 |
| 20260901205041 | 87 | 281 | 5.0 | 9.0 | 0.00 | 0.00 | 0.00 | 60 | 1019.2 |
| 20260901204556 | 88 | 5 | 4.0 | 8.0 | 0.00 | 0.00 | 0.00 | 59 | 1019.3 |
| 20260901204040 | 88 | 306 | 3.0 | 6.0 | 0.00 | 0.00 | 0.00 | 59 | 1019.2 |
| 20260901203544 | 87 | 0 | 0.0 | 10.0 | 0.00 | 0.00 | 0.00 | 58 | 1019.3 |
| 20260901203116 | 87 | 69 | 1.0 | 10.0 | 0.00 | 0.00 | 0.00 | 59 | 1019.3 |
| 20260901202541 | 87 | 19 | 3.0 | 9.0 | 0.00 | 0.00 | 0.00 | 61 | 1019.3 |
| 20260901202043 | 87 | 261 | 2.0 | 6.0 | 0.00 | 0.00 | 0.00 | 60 | 1019.4 |
| 20260901201603 | 87 | 316 | 2.0 | 9.0 | 0.00 | 0.00 | 0.00 | 60 | 1019.5 |
| 20260901201042 | 87 | 284 | 4.0 | 9.0 | 0.00 | 0.00 | 0.00 | 61 | 1019.5 |
| 20260901200540 | 87 | 5 | 1.0 | 5.0 | 0.00 | 0.00 | 0.00 | 60 | 1019.5 |
| 20260901200056 | 86 | 40 | 2.0 | 7.0 | 0.00 | 0.00 | 0.00 | 60 | 1019.5 |
| 20260901195540 | 86 | 34 | 4.0 | 7.0 | 0.00 | 0.00 | 0.00 | 62 | 1019.5 |
| 20260901195042 | 87 | 26 | 2.0 | 6.0 | 0.00 | 0.00 | 0.00 | 61 | 1019.6 |
| 20260901194604 | 86 | 329 | 2.0 | 11.0 | 0.00 | 0.00 | 0.00 | 61 | 1019.6 |
| 20260901194041 | 86 | 355 | 4.0 | 11.0 | 0.00 | 0.00 | 0.00 | 61 | 1019.8 |
| 20260901193541 | 87 | 43 | 5.0 | 11.0 | 0.00 | 0.00 | 0.00 | 61 | 1019.9 |
| 20260901193051 | 86 | 26 | 2.0 | 9.0 | 0.00 | 0.00 | 0.00 | 62 | 1019.9 |
| 20260901192542 | 86 | 0 | 1.0 | 9.0 | 0.00 | 0.00 | 0.00 | 63 | 1019.9 |
| 20260901192041 | 86 | 355 | 6.0 | 12.0 | 0.00 | 0.00 | 0.00 | 62 | 1020.1 |
| 20260901191620 | 86 | 26 | 7.0 | 12.0 | 0.00 | 0.00 | 0.00 | 63 | 1020.3 |
| 20260901191040 | 86 | 18 | 2.0 | 8.0 | 0.00 | 0.00 | 0.00 | 62 | 1020.2 |
| 20260901190539 | 86 | 333 | 4.0 | 8.0 | 0.00 | 0.00 | 0.00 | 61 | 1020.2 |
| 20260901190056 | 86 | 24 | 2.0 | 8.0 | 0.00 | 0.00 | 0.00 | 60 | 1020.2 |
| 20260901185541 | 87 | 17 | 5.0 | 8.0 | 0.00 | 0.00 | 0.00 | 59 | 1020.2 |
| 20260901185040 | 87 | 352 | 1.0 | 10.0 | 0.00 | 0.00 | 0.00 | 59 | 1020.4 |
| 20260901184553 | 86 | 80 | 2.0 | 11.0 | 0.00 | 0.00 | 0.00 | 59 | 1020.3 |
| 20260901184040 | 86 | 33 | 2.0 | 11.0 | 0.00 | 0.00 | 0.00 | 62 | 1020.4 |
| 20260901183539 | 86 | 37 | 3.0 | 13.0 | 0.00 | 0.00 | 0.00 | 60 | 1020.6 |
| 20260901183103 | 86 | 19 | 5.0 | 13.0 | 0.00 | 0.00 | 0.00 | 59 | 1020.6 |
| 20260901182541 | 86 | 36 | 6.0 | 13.0 | 0.00 | 0.00 | 0.00 | 59 | 1020.5 |
| 20260901182041 | 85 | 304 | 2.0 | 10.0 | 0.00 | 0.00 | 0.00 | 63 | 1020.5 |
| 20260901181547 | 85 | 262 | 4.0 | 10.0 | 0.00 | 0.00 | 0.00 | 62 | 1020.7 |
| 20260901181039 | 85 | 292 | 5.0 | 9.0 | 0.00 | 0.00 | 0.00 | 62 | 1020.7 |
| 20260901180539 | 85 | 315 | 3.0 | 8.0 | 0.00 | 0.00 | 0.00 | 63 | 1020.8 |
| 20260901180055 | 85 | 344 | 2.0 | 6.0 | 0.00 | 0.00 | 0.00 | 63 | 1020.7 |
| 20260901175538 | 85 | 246 | 1.0 | 9.0 | 0.00 | 0.00 | 0.00 | 63 | 1020.8 |
| 20260901175038 | 84 | 308 | 3.0 | 9.0 | 0.00 | 0.00 | 0.00 | 63 | 1020.8 |
| 20260901174557 | 85 | 350 | 4.0 | 9.0 | 0.00 | 0.00 | 0.00 | 64 | 1020.8 |
| 20260901174038 | 85 | 15 | 2.0 | 10.0 | 0.00 | 0.00 | 0.00 | 66 | 1020.8 |
| 20260901173537 | 85 | 350 | 4.0 | 10.0 | 0.00 | 0.00 | 0.00 | 64 | 1020.8 |
| 20260901173059 | 84 | 88 | 4.0 | 10.0 | 0.00 | 0.00 | 0.00 | 66 | 1021.0 |
| 20260901172538 | 84 | 13 | 3.0 | 5.0 | 0.00 | 0.00 | 0.00 | 68 | 1021.0 |
| 20260901172038 | 84 | 205 | 1.0 | 6.0 | 0.00 | 0.00 | 0.00 | 68 | 1021.2 |
| 20260901171554 | 84 | 0 | 2.0 | 7.0 | 0.00 | 0.00 | 0.00 | 68 | 1021.2 |
| 20260901171038 | 84 | 319 | 2.0 | 7.0 | 0.00 | 0.00 | 0.00 | 70 | 1021.3 |
| 20260901170538 | 83 | 27 | 2.0 | 8.0 | 0.00 | 0.00 | 0.00 | 69 | 1021.3 |
| 20260901170048 | 83 | 305 | 2.0 | 8.0 | 0.00 | 0.00 | 0.00 | 69 | 1021.4 |
| 20260901165540 | 83 | 15 | 4.0 | 8.0 | 0.00 | 0.00 | 0.00 | 70 | 1021.4 |
| 20260901165038 | 83 | 263 | 3.0 | 8.0 | 0.00 | 0.00 | 0.00 | 69 | 1021.5 |
| 20260901164603 | 82 | 242 | 1.0 | 11.0 | 0.00 | 0.00 | 0.00 | 70 | 1021.6 |
| 20260901164038 | 82 | 294 | 5.0 | 11.0 | 0.00 | 0.00 | 0.00 | 70 | 1021.7 |
| 20260901163537 | 82 | 13 | 3.0 | 10.0 | 0.00 | 0.00 | 0.00 | 70 | 1021.8 |
| 20260901163057 | 82 | 309 | 4.0 | 10.0 | 0.00 | 0.00 | 0.00 | 70 | 1021.8 |
| 20260901162540 | 82 | 5 | 1.0 | 10.0 | 0.00 | 0.00 | 0.00 | 71 | 1021.9 |
| 20260901162039 | 82 | 5 | 6.0 | 10.0 | 0.00 | 0.00 | 0.00 | 70 | 1022.0 |
| 20260901161602 | 82 | 12 | 4.0 | 9.0 | 0.00 | 0.00 | 0.00 | 71 | 1021.9 |
| 20260901161038 | 82 | 11 | 1.0 | 5.0 | 0.00 | 0.00 | 0.00 | 73 | 1022.0 |
| 20260901160540 | 81 | 298 | 1.0 | 8.0 | 0.00 | 0.00 | 0.00 | 73 | 1022.1 |
| 20260901160055 | 81 | 308 | 3.0 | 8.0 | 0.00 | 0.00 | 0.00 | 73 | 1022.1 |
| 20260901155538 | 81 | 336 | 2.0 | 7.0 | 0.00 | 0.00 | 0.00 | 73 | 1022.1 |
| 20260901155040 | 81 | 229 | 2.0 | 7.0 | 0.00 | 0.00 | 0.00 | 75 | 1022.2 |
| 20260901154544 | 80 | 0 | 1.0 | 4.0 | 0.00 | 0.00 | 0.00 | 76 | 1022.2 |
| 20260901154038 | 80 | 239 | 1.0 | 4.0 | 0.00 | 0.00 | 0.00 | 77 | 1022.4 |
| 20260901153538 | 80 | 240 | 2.0 | 4.0 | 0.00 | 0.00 | 0.00 | 77 | 1022.4 |
| 20260901153113 | 79 | 232 | 1.0 | 4.0 | 0.00 | 0.00 | 0.00 | 79 | 1022.4 |
| 20260901152538 | 79 | 0 | 0.0 | 3.0 | 0.00 | 0.00 | 0.00 | 79 | 1022.4 |
| 20260901152038 | 78 | 246 | 1.0 | 4.0 | 0.00 | 0.00 | 0.00 | 81 | 1022.4 |
| 20260901151554 | 78 | 234 | 2.0 | 4.0 | 0.00 | 0.00 | 0.00 | 81 | 1022.5 |
| 20260901151040 | 78 | 248 | 2.0 | 4.0 | 0.00 | 0.00 | 0.00 | 81 | 1022.4 |
| 20260901150538 | 77 | 240 | 2.0 | 4.0 | 0.00 | 0.00 | 0.00 | 82 | 1022.5 |
| 20260901150046 | 77 | 246 | 2.0 | 4.0 | 0.00 | 0.00 | 0.00 | 82 | 1022.5 |
| 20260901145538 | 76 | 244 | 1.0 | 3.0 | 0.00 | 0.00 | 0.00 | 83 | 1022.6 |
| 20260901145040 | 76 | 257 | 1.0 | 3.0 | 0.00 | 0.00 | 0.00 | 83 | 1022.4 |
| 20260901144559 | 76 | 251 | 2.0 | 4.0 | 0.00 | 0.00 | 0.00 | 84 | 1022.4 |
| 20260901144040 | 75 | 244 | 2.0 | 4.0 | 0.00 | 0.00 | 0.00 | 84 | 1022.4 |
| 20260901143540 | 75 | 261 | 2.0 | 5.0 | 0.00 | 0.00 | 0.00 | 84 | 1022.4 |
| 20260901143055 | 75 | 245 | 3.0 | 5.0 | 0.00 | 0.00 | 0.00 | 84 | 1022.3 |
| 20260901142540 | 75 | 220 | 3.0 | 5.0 | 0.00 | 0.00 | 0.00 | 84 | 1022.4 |
| 20260901142040 | 75 | 252 | 3.0 | 6.0 | 0.00 | 0.00 | 0.00 | 84 | 1022.4 |
| 20260901141552 | 75 | 242 | 3.0 | 6.0 | 0.00 | 0.00 | 0.00 | 84 | 1022.4 |
| 20260901141040 | 75 | 235 | 1.0 | 5.0 | 0.00 | 0.00 | 0.00 | 84 | 1022.3 |
| 20260901140539 | 74 | 0 | 0.0 | 3.0 | 0.00 | 0.00 | 0.00 | 85 | 1022.4 |
| 20260901140106 | 74 | 0 | 0.0 | 4.0 | 0.00 | 0.00 | 0.00 | 85 | 1022.3 |
| 20260901135542 | 74 | 264 | 1.0 | 4.0 | 0.00 | 0.00 | 0.00 | 85 | 1022.4 |
| 20260901135040 | 74 | 253 | 2.0 | 4.0 | 0.00 | 0.00 | 0.00 | 84 | 1022.4 |
| 20260901134558 | 74 | 326 | 1.0 | 3.0 | 0.00 | 0.00 | 0.00 | 85 | 1022.3 |
| 20260901134040 | 74 | 0 | 0.0 | 3.0 | 0.00 | 0.00 | 0.00 | 85 | 1022.4 |
| 20260901133544 | 74 | 0 | 0.0 | 3.0 | 0.00 | 0.00 | 0.00 | 85 | 1022.3 |
| 20260901133056 | 74 | 0 | 0.0 | 3.0 | 0.00 | 0.00 | 0.00 | 85 | 1022.4 |
| 20260901132540 | 73 | 0 | 0.0 | 1.0 | 0.00 | 0.00 | 0.00 | 84 | 1022.4 |
| 20260901132040 | 73 | 0 | 0.0 | 1.0 | 0.00 | 0.00 | 0.00 | 84 | 1022.3 |
| 20260901131604 | 72 | 0 | 0.0 | 2.0 | 0.00 | 0.00 | 0.00 | 84 | 1022.4 |
| 20260901131044 | 72 | 0 | 0.0 | 2.0 | 0.00 | 0.00 | 0.00 | 84 | 1022.4 |
| 20260901130540 | 71 | 63 | 0.0 | 2.0 | 0.00 | 0.00 | 0.00 | 83 | 1022.3 |
| 20260901130058 | 71 | 0 | 0.0 | 2.0 | 0.00 | 0.00 | 0.00 | 83 | 1022.3 |
| 20260901125540 | 71 | 0 | 0.0 | 3.0 | 0.00 | 0.00 | 0.00 | 83 | 1022.2 |
| 20260901125041 | 70 | 63 | 0.0 | 3.0 | 0.00 | 0.00 | 0.00 | 83 | 1022.3 |
| 20260901124556 | 70 | 53 | 1.0 | 3.0 | 0.00 | 0.00 | 0.00 | 83 | 1022.2 |
| 20260901124040 | 70 | 61 | 1.0 | 3.0 | 0.00 | 0.00 | 0.00 | 83 | 1022.2 |
| 20260901123542 | 69 | 45 | 0.0 | 3.0 | 0.00 | 0.00 | 0.00 | 83 | 1022.2 |
| 20260901123055 | 69 | 0 | 0.0 | 2.0 | 0.00 | 0.00 | 0.00 | 83 | 1022.1 |
| 20260901122540 | 69 | 0 | 0.0 | 2.0 | 0.00 | 0.00 | 0.00 | 83 | 1022.0 |
| 20260901122039 | 69 | 46 | 1.0 | 2.0 | 0.00 | 0.00 | 0.00 | 83 | 1022.0 |
| 20260901121548 | 68 | 68 | 1.0 | 3.0 | 0.00 | 0.00 | 0.00 | 83 | 1022.0 |
| 20260901121040 | 68 | 58 | 1.0 | 3.0 | 0.00 | 0.00 | 0.00 | 83 | 1021.9 |
| 20260901120541 | 68 | 62 | 1.0 | 2.0 | 0.00 | 0.00 | 0.00 | 83 | 1021.9 |
| 20260901120058 | 68 | 62 | 0.0 | 3.0 | 0.00 | 0.00 | 0.00 | 83 | 1021.9 |
| 20260901115542 | 68 | 62 | 1.0 | 3.0 | 0.00 | 0.00 | 0.00 | 83 | 1021.7 |
| 20260901115040 | 68 | 45 | 1.0 | 3.0 | 0.00 | 0.00 | 0.00 | 83 | 1021.7 |
| 20260901114555 | 68 | 53 | 1.0 | 2.0 | 0.00 | 0.00 | 0.00 | 83 | 1021.7 |
| 20260901114041 | 68 | 53 | 0.0 | 2.0 | 0.00 | 0.00 | 0.00 | 83 | 1021.5 |
| 20260901113540 | 68 | 53 | 0.0 | 1.0 | 0.00 | 0.00 | 0.00 | 83 | 1021.3 |
| 20260901113050 | 68 | 53 | 0.0 | 1.0 | 0.00 | 0.00 | 0.00 | 83 | 1021.2 |
| 20260901112540 | 68 | 0 | 0.0 | 1.0 | 0.00 | 0.00 | 0.00 | 83 | 1021.2 |
| 20260901112040 | 68 | 0 | 0.0 | 2.0 | 0.00 | 0.00 | 0.00 | 83 | 1021.2 |
| 20260901111559 | 68 | 0 | 0.0 | 2.0 | 0.00 | 0.00 | 0.00 | 83 | 1021.2 |
| 20260901111040 | 68 | 53 | 0.0 | 2.0 | 0.00 | 0.00 | 0.00 | 83 | 1021.1 |
| 20260901110539 | 68 | 53 | 1.0 | 2.0 | 0.00 | 0.00 | 0.00 | 83 | 1021.0 |
| 20260901110058 | 68 | 53 | 0.0 | 2.0 | 0.00 | 0.00 | 0.00 | 83 | 1021.0 |
| 20260901105540 | 68 | 0 | 1.0 | 2.0 | 0.00 | 0.00 | 0.00 | 83 | 1020.9 |
| 20260901105043 | 68 | 54 | 0.0 | 2.0 | 0.00 | 0.00 | 0.00 | 83 | 1020.9 |
| 20260901104553 | 68 | 54 | 0.0 | 2.0 | 0.00 | 0.00 | 0.00 | 84 | 1020.8 |
| 20260901104040 | 68 | 0 | 0.0 | 2.0 | 0.00 | 0.00 | 0.00 | 83 | 1020.9 |
| 20260901103540 | 68 | 54 | 0.0 | 2.0 | 0.00 | 0.00 | 0.00 | 83 | 1020.8 |
| 20260901103100 | 68 | 0 | 0.0 | 1.0 | 0.00 | 0.00 | 0.00 | 83 | 1020.9 |
| 20260901102540 | 68 | 54 | 0.0 | 1.0 | 0.00 | 0.00 | 0.00 | 83 | 1020.9 |
| 20260901102040 | 68 | 54 | 0.0 | 1.0 | 0.00 | 0.00 | 0.00 | 83 | 1020.9 |
| 20260901101611 | 68 | 0 | 0.0 | 1.0 | 0.00 | 0.00 | 0.00 | 84 | 1020.8 |
| 20260901101041 | 68 | 54 | 0.0 | 2.0 | 0.00 | 0.00 | 0.00 | 84 | 1020.8 |
| 20260901100543 | 69 | 54 | 0.0 | 2.0 | 0.00 | 0.00 | 0.00 | 83 | 1020.8 |
| 20260901100100 | 69 | 0 | 0.0 | 2.0 | 0.00 | 0.00 | 0.00 | 84 | 1020.7 |
| 20260901095540 | 69 | 54 | 0.0 | 2.0 | 0.00 | 0.00 | 0.00 | 84 | 1020.7 |
| 20260901095040 | 69 | 54 | 0.0 | 3.0 | 0.00 | 0.00 | 0.00 | 84 | 1020.7 |
| 20260901094559 | 69 | 0 | 0.0 | 3.0 | 0.00 | 0.00 | 0.00 | 84 | 1020.7 |
| 20260901094040 | 69 | 54 | 2.0 | 3.0 | 0.00 | 0.00 | 0.00 | 83 | 1020.7 |
| 20260901093543 | 69 | 0 | 0.0 | 2.0 | 0.00 | 0.00 | 0.00 | 84 | 1020.7 |
| 20260901093052 | 69 | 0 | 0.0 | 3.0 | 0.00 | 0.00 | 0.00 | 84 | 1020.6 |
| 20260901092540 | 69 | 73 | 1.0 | 3.0 | 0.00 | 0.00 | 0.00 | 84 | 1020.7 |
| 20260901092040 | 69 | 0 | 2.0 | 3.0 | 0.00 | 0.00 | 0.00 | 84 | 1020.6 |
| 20260901091627 | 69 | 20 | 0.0 | 0.0 | 0.00 | 0.00 | 0.00 | 84 | 1020.5 |
| 20260901091039 | 69 | 0 | 0.0 | 1.0 | 0.00 | 0.00 | 0.00 | 84 | 1020.6 |
| 20260901090540 | 69 | 0 | 0.0 | 1.0 | 0.00 | 0.00 | 0.00 | 84 | 1020.5 |
| 20260901090055 | 69 | 0 | 0.0 | 1.0 | 0.00 | 0.00 | 0.00 | 84 | 1020.5 |
| 20260901085540 | 69 | 0 | 0.0 | 2.0 | 0.00 | 0.00 | 0.00 | 84 | 1020.5 |
| 20260901085040 | 69 | 54 | 0.0 | 2.0 | 0.00 | 0.00 | 0.00 | 84 | 1020.5 |
| 20260901084600 | 69 | 0 | 1.0 | 2.0 | 0.00 | 0.00 | 0.00 | 84 | 1020.4 |
| 20260901084038 | 69 | 54 | 0.0 | 2.0 | 0.00 | 0.00 | 0.00 | 84 | 1020.4 |
| 20260901083538 | 69 | 0 | 0.0 | 2.0 | 0.00 | 0.00 | 0.00 | 84 | 1020.5 |
| 20260901083049 | 70 | 0 | 0.0 | 3.0 | 0.00 | 0.00 | 0.00 | 84 | 1020.5 |
| 20260901082539 | 70 | 54 | 1.0 | 3.0 | 0.00 | 0.00 | 0.00 | 84 | 1020.3 |
| 20260901082038 | 70 | 85 | 0.0 | 1.0 | 0.00 | 0.00 | 0.00 | 84 | 1020.4 |
| 20260901081556 | 70 | 0 | 0.0 | 0.0 | 0.00 | 0.00 | 0.00 | 84 | 1020.5 |
| 20260901081037 | 70 | 0 | 0.0 | 0.0 | 0.00 | 0.00 | 0.00 | 84 | 1020.5 |
| 20260901080538 | 70 | 0 | 0.0 | 0.0 | 0.00 | 0.00 | 0.00 | 84 | 1020.5 |
| 20260901075539 | 70 | 0 | 0.0 | 0.0 | 0.00 | 0.00 | 0.00 | 84 | 1020.4 |
| 20260901075039 | 70 | 0 | 0.0 | 2.0 | 0.00 | 0.00 | 0.00 | 84 | 1020.3 |
| 20260901074611 | 70 | 0 | 0.0 | 2.0 | 0.00 | 0.00 | 0.00 | 84 | 1020.5 |
| 20260901074038 | 70 | 85 | 0.0 | 2.0 | 0.00 | 0.00 | 0.00 | 84 | 1020.6 |
| 20260901073541 | 70 | 85 | 1.0 | 3.0 | 0.00 | 0.00 | 0.00 | 84 | 1020.5 |
| 20260901073050 | 70 | 0 | 0.0 | 3.0 | 0.00 | 0.00 | 0.00 | 84 | 1020.6 |
| 20260901072539 | 70 | 96 | 1.0 | 3.0 | 0.00 | 0.00 | 0.00 | 84 | 1020.6 |
| 20260901072038 | 70 | 0 | 1.0 | 3.0 | 0.00 | 0.00 | 0.00 | 84 | 1020.6 |
| 20260901071557 | 70 | 94 | 0.0 | 2.0 | 0.00 | 0.00 | 0.00 | 84 | 1020.6 |
| 20260901071038 | 70 | 0 | 0.0 | 1.0 | 0.00 | 0.00 | 0.00 | 84 | 1020.5 |
| 20260901070538 | 70 | 0 | 0.0 | 1.0 | 0.00 | 0.00 | 0.00 | 84 | 1020.6 |
| 20260901070109 | 70 | 0 | 0.0 | 2.0 | 0.00 | 0.00 | 0.00 | 84 | 1020.6 |
| 20260901065538 | 70 | 0 | 0.0 | 2.0 | 0.00 | 0.00 | 0.00 | 84 | 1020.7 |
| 20260901065038 | 70 | 94 | 0.0 | 2.0 | 0.00 | 0.00 | 0.00 | 84 | 1020.7 |
| 20260901064553 | 70 | 94 | 0.0 | 2.0 | 0.00 | 0.00 | 0.00 | 84 | 1020.7 |
| 20260901064038 | 70 | 94 | 0.0 | 2.0 | 0.00 | 0.00 | 0.00 | 84 | 1020.7 |
| 20260901063539 | 70 | 65 | 0.0 | 2.0 | 0.00 | 0.00 | 0.00 | 84 | 1020.8 |
| 20260901063117 | 71 | 59 | 0.0 | 5.0 | 0.00 | 0.00 | 0.00 | 84 | 1020.8 |
| 20260901062538 | 71 | 58 | 2.0 | 5.0 | 0.00 | 0.00 | 0.00 | 84 | 1020.9 |
| 20260901062041 | 71 | 22 | 3.0 | 5.0 | 0.00 | 0.00 | 0.00 | 84 | 1020.9 |
| 20260901061559 | 71 | 19 | 1.0 | 3.0 | 0.00 | 0.00 | 0.00 | 84 | 1021.0 |
| 20260901061038 | 71 | 0 | 1.0 | 2.0 | 0.00 | 0.00 | 0.00 | 84 | 1021.1 |
| 20260901060543 | 71 | 55 | 1.0 | 3.0 | 0.00 | 0.00 | 0.00 | 84 | 1021.1 |
| 20260901060057 | 71 | 55 | 0.0 | 3.0 | 0.00 | 0.00 | 0.00 | 84 | 1021.2 |
| 20260901055538 | 71 | 55 | 1.0 | 3.0 | 0.00 | 0.00 | 0.00 | 84 | 1021.0 |
| 20260901055038 | 71 | 70 | 1.0 | 3.0 | 0.00 | 0.00 | 0.00 | 85 | 1021.1 |
| 20260901054556 | 71 | 70 | 1.0 | 3.0 | 0.00 | 0.00 | 0.00 | 85 | 1021.0 |
| 20260901054040 | 71 | 0 | 0.0 | 2.0 | 0.00 | 0.00 | 0.00 | 85 | 1021.0 |
| 20260901053543 | 71 | 43 | 0.0 | 2.0 | 0.00 | 0.00 | 0.00 | 85 | 1021.1 |
| 20260901053117 | 71 | 43 | 1.0 | 2.0 | 0.00 | 0.00 | 0.00 | 85 | 1021.1 |
| 20260901052540 | 71 | 0 | 0.0 | 2.0 | 0.00 | 0.00 | 0.00 | 85 | 1021.1 |
| 20260901052040 | 72 | 43 | 1.0 | 2.0 | 0.00 | 0.00 | 0.00 | 84 | 1021.0 |
| 20260901051610 | 72 | 43 | 0.0 | 2.0 | 0.00 | 0.00 | 0.00 | 85 | 1021.0 |
| 20260901051041 | 72 | 43 | 0.0 | 2.0 | 0.00 | 0.00 | 0.00 | 85 | 1021.0 |
| 20260901050539 | 72 | 0 | 0.0 | 2.0 | 0.00 | 0.00 | 0.00 | 85 | 1021.0 |
| 20260901050104 | 72 | 0 | 0.0 | 2.0 | 0.00 | 0.00 | 0.00 | 85 | 1021.0 |
| 20260901045543 | 72 | 43 | 1.0 | 4.0 | 0.00 | 0.00 | 0.00 | 85 | 1021.0 |
| 20260901045040 | 72 | 61 | 1.0 | 4.0 | 0.00 | 0.00 | 0.00 | 85 | 1020.9 |
| 20260901044558 | 72 | 49 | 2.0 | 4.0 | 0.00 | 0.00 | 0.00 | 85 | 1021.0 |
| 20260901044043 | 72 | 56 | 2.0 | 3.0 | 0.00 | 0.00 | 0.00 | 85 | 1020.9 |
| 20260901043540 | 73 | 44 | 2.0 | 3.0 | 0.00 | 0.00 | 0.00 | 84 | 1020.8 |
| 20260901043103 | 73 | 32 | 1.0 | 2.0 | 0.00 | 0.00 | 0.00 | 85 | 1020.8 |
| 20260901042539 | 73 | 32 | 1.0 | 3.0 | 0.00 | 0.00 | 0.00 | 85 | 1020.8 |
| 20260901042039 | 73 | 32 | 1.0 | 3.0 | 0.00 | 0.00 | 0.00 | 85 | 1020.8 |
| 20260901041611 | 73 | 32 | 1.0 | 2.0 | 0.00 | 0.00 | 0.00 | 85 | 1020.9 |
| 20260901041040 | 73 | 32 | 0.0 | 3.0 | 0.00 | 0.00 | 0.00 | 85 | 1020.8 |
| 20260901040543 | 73 | 32 | 0.0 | 3.0 | 0.00 | 0.00 | 0.00 | 85 | 1020.8 |
| 20260901040056 | 73 | 0 | 1.0 | 3.0 | 0.00 | 0.00 | 0.00 | 85 | 1020.8 |
| 20260901035540 | 73 | 28 | 0.0 | 2.0 | 0.00 | 0.00 | 0.00 | 85 | 1020.7 |
| 20260901035040 | 73 | 0 | 0.0 | 2.0 | 0.00 | 0.00 | 0.00 | 84 | 1020.7 |
| 20260901034548 | 73 | 28 | 0.0 | 2.0 | 0.00 | 0.00 | 0.00 | 85 | 1020.7 |
| 20260901034041 | 73 | 28 | 0.0 | 2.0 | 0.00 | 0.00 | 0.00 | 85 | 1020.6 |
| 20260901033540 | 74 | 28 | 1.0 | 2.0 | 0.00 | 0.00 | 0.00 | 85 | 1020.7 |
| 20260901033059 | 74 | 28 | 1.0 | 2.0 | 0.00 | 0.00 | 0.00 | 85 | 1020.8 |
| 20260901032540 | 74 | 28 | 0.0 | 2.0 | 0.00 | 0.00 | 0.00 | 85 | 1020.8 |
| 20260901032040 | 74 | 28 | 1.0 | 2.0 | 0.00 | 0.00 | 0.00 | 85 | 1020.7 |
| 20260901031600 | 74 | 28 | 0.0 | 2.0 | 0.00 | 0.00 | 0.00 | 85 | 1020.8 |
| 20260901031040 | 74 | 28 | 0.0 | 2.0 | 0.00 | 0.00 | 0.00 | 85 | 1020.8 |
| 20260901030540 | 74 | 28 | 0.0 | 2.0 | 0.00 | 0.00 | 0.00 | 85 | 1020.9 |
| 20260901030050 | 74 | 28 | 0.0 | 2.0 | 0.00 | 0.00 | 0.00 | 85 | 1020.8 |
| 20260901025540 | 74 | 0 | 0.0 | 3.0 | 0.00 | 0.00 | 0.00 | 85 | 1020.8 |
| 20260901025040 | 74 | 0 | 0.0 | 3.0 | 0.00 | 0.00 | 0.00 | 85 | 1020.8 |
| 20260901024549 | 74 | 28 | 2.0 | 3.0 | 0.00 | 0.00 | 0.00 | 85 | 1020.8 |
| 20260901024040 | 74 | 28 | 1.0 | 2.0 | 0.00 | 0.00 | 0.00 | 85 | 1020.9 |
| 20260901023540 | 75 | 0 | 0.0 | 2.0 | 0.00 | 0.00 | 0.00 | 85 | 1020.8 |
| 20260901023059 | 75 | 28 | 0.0 | 2.0 | 0.00 | 0.00 | 0.00 | 85 | 1020.8 |
| 20260901022539 | 75 | 28 | 0.0 | 2.0 | 0.00 | 0.00 | 0.00 | 85 | 1020.9 |
| 20260901022039 | 75 | 28 | 1.0 | 2.0 | 0.00 | 0.00 | 0.00 | 85 | 1020.9 |
| 20260901021556 | 75 | 0 | 0.0 | 2.0 | 0.00 | 0.00 | 0.00 | 85 | 1020.7 |
| 20260901021041 | 75 | 38 | 0.0 | 2.0 | 0.00 | 0.00 | 0.00 | 85 | 1020.9 |
| 20260901020541 | 75 | 38 | 0.0 | 1.0 | 0.00 | 0.00 | 0.00 | 85 | 1020.8 |
| 20260901020053 | 75 | 0 | 0.0 | 0.0 | 0.00 | 0.00 | 0.00 | 85 | 1020.7 |
| 20260901015540 | 75 | 0 | 0.0 | 0.0 | 0.00 | 0.00 | 0.00 | 84 | 1020.7 |
| 20260901015040 | 76 | 0 | 0.0 | 1.0 | 0.00 | 0.00 | 0.00 | 84 | 1020.6 |
| 20260901014558 | 76 | 0 | 0.0 | 4.0 | 0.00 | 0.00 | 0.00 | 84 | 1020.5 |
| 20260901014040 | 76 | 38 | 0.0 | 4.0 | 0.00 | 0.00 | 0.00 | 84 | 1020.5 |
| 20260901013540 | 76 | 36 | 2.0 | 4.0 | 0.00 | 0.00 | 0.00 | 84 | 1020.4 |
| 20260901013049 | 76 | 29 | 0.0 | 1.0 | 0.00 | 0.00 | 0.00 | 84 | 1020.2 |
| 20260901012539 | 76 | 0 | 0.0 | 0.0 | 0.00 | 0.00 | 0.00 | 84 | 1020.2 |